Regional Weather Roundup
Issued by NWS Lake Charles, LA

Home | Current Version | Previous Version | Text Only | Print | Product List | Glossary On
Versions: 1 2 3 4 5 6 7 8 9 10 11 12 13 14 15 16 17 18 19 20 21 22 23 24 25 26 27 28
000
ASUS44 KLCH 281210
RWRLCH
REGIONAL WEATHER ROUNDUP
NATIONAL WEATHER SERVICE LAKE CHARLES LA
700 AM CDT SUN AUG 28 2016

Note: "fair" indicates few or no clouds below 12,000 feet with no
significant weather and/or obstructions to visibility.


ACROSS SOUTHEAST TEXAS

CITY           SKY/WX    TMP DP  RH WIND       PRES   REMARKS
BEAUMONT       CLOUDY    75  73  93 NE7       29.95F
BEAUMONT CITY  FAIR      74  72  92 NE5       29.97S
ORANGE         CLOUDY    73  73  98 N3        29.98S
JASPER         PTCLDY    75  72  91 CALM      30.02R
$$

ACROSS CENTRAL LOUISIANA

CITY           SKY/WX    TMP DP  RH WIND       PRES   REMARKS
LEESVILLE      CLEAR     73  72  95 NE7       30.00R
FULLERTON      CLOUDY    74  72  93 VRB3      29.99R FOG
ALEXANDRIA INT CLOUDY    73  73 100 CALM      30.00R FOG
ESLER FIELD    FOG       74  74 100 E3        30.01R VSB 1/4
DERIDDER       FAIR      74  73  95 CALM      30.01R FOG
OAKDALE        SUNNY     73  72  98 CALM      30.00R FOG
OPELOUSAS      FAIR      73  72  98 CALM      30.00R
$$

ACROSS SOUTHWEST AND SOUTH CENTRAL LOUISIANA

CITY           SKY/WX    TMP DP  RH WIND       PRES   REMARKS
SULPHUR        CLOUDY    76  74  95 NE3       29.98R
LAKE CHARLES   MOCLDY    74  74 100 NE8       29.96S
CHENNAULT INT  PTCLDY    73  72  94 CALM      29.97R
CAMERON PHI    PTSUNNY   77  77 100 NE6       29.95R
DEQUINCY       FAIR      73  73 100 CALM      29.99R
JENNINGS       FAIR      73  73 100 NE6       29.97R FOG
LAFAYETTE      CLEAR     76  74  93 NE6       29.99R
NEW IBERIA     PTCLDY    76  74  93 NE8       29.99R
ABBEVILLE      FAIR      74  74 100 CALM      29.98S
PATTERSON      CLOUDY    76  76 100 NE6       29.98R FOG
SALT POINT       N/A     77  75  93 CALM      29.96R
$$

SELECTED SITES ACROSS THE REGION

CITY           SKY/WX    TMP DP  RH WIND       PRES   REMARKS
HOUSTON BUSH   CLOUDY    75  72  90 NE3       29.97R
HOUSTON HOBBY  CLOUDY    76  73  91 NE8       29.95R
GALVESTON      PTCLDY    79  77  94 NE9       29.95R
COLLEGE STAT   CLOUDY    75  73  93 NE7       30.00R
CONROE         CLOUDY    74  71  91 NE3       29.99R
HUNTSVILLE     CLOUDY    74  72  93 N3        30.00R FOG
LUFKIN         PTCLDY    73  70  90 NE5       30.01R
SHREVEPORT     CLOUDY    76  74  93 N5        30.03R
MONROE         CLOUDY    76  75  97 NE3       30.03R
NATCHEZ MS       N/A     73  72  94 MISG        N/A
BATON ROUGE    CLEAR     75  75 100 NE6       30.00R
N.O. INTL ARPT PTCLDY    83  78  85 NE8       29.99R
SLIDELL        CLEAR     75  74  96 CALM      30.00R
$$

MARINE REPORTS

STATION/POSITION TIME  SKY/WX   TEMP    WIND        PRES    VSBY
                                AIR SEA DIR/SP/G
                 (UTC)          (F)     (DEG/KT/KT) (MB)    (MI)
BUOY 30 S HIGH I 1150            81 85   70/ 14/ 17 1013.1R
WVE H/P(F/S)=  3/ 5

SEA RIM ST PARK  1200            76      30/  7/  8 1014.8F
PORT ARTHUR      1100               85   30/  2/  3 1014.7R
SABINE PASS N    1100            76 86   50/  7/  9 1015.7R
TEXAS POINT      NOT AVBL
CALCASIEU PASS   1100            76 85   90/  6/  7 1013.4R
LK CHARLES BEACH 1100            73 81              1015.3R
MARSH ISLAND     1100            80                   N/A
FRESH WATER LOCK 1100            77 84   50/  4/  6 1014.9R
AMERADA PASS     1100            77 82   50/  3/  6 1014.2R
$$




USA.gov is the U.S. government's official web portal to all federal, state and local government web resources and services.